Flag for U.S.A. Weather past 2 weeks in Warren, Michigan, U.S.A.

Now
55 °F

Overcast.


Feels Like: 52 °F
Forecast: 36 / 55 °F
Wind: 10 mph from North

Location: Detroit City Airport

Current Time: Apr 26, 2015 at 5:54:14 PM

Latest Report: Apr 26, 2015 at 4:53 PM


Visibility: 10 mi

Pressure: 29.90 "Hg

Humidity: 39%

Dew point: 30 °F

Location of WarrenLocation

Historic Weather in Warren — Graph

°F

Warren temperature yesterday

Maximum temperature yesterday: 51 °F (at 3:53 PM)
Minimum temperature yesterday: 38 °F (at 2:53 AM)
Average temperature yesterday: 43 °F

Past Weeks' High & Low Weather Summary

 TemperatureHumidityPressure
High71 °F (Apr 13, 1:53 PM)100% (Apr 17, 4:56 AM)30.40 "Hg (Apr 17, 4:56 AM)
Low30 °F (Apr 24, 5:53 AM)16% (Apr 18, 6:53 PM)29.24 "Hg (Apr 20, 5:53 AM)
Average49 °F56%29.96 "Hg
* Reported Apr 11 4:53 PM — Apr 26 4:53 PM, Warren, Weather by CustomWeather, © 2015

Note: Actual official high and low records may vary slightly from our data, if they occured in-between our weather recording intervals... More about our weather records

Advertising

Warren weather history for previous 24 hours

 ConditionsComfort  
Time TempWeatherWind HumidityBarometerVisibility
4:53 PM
Sun, Apr 26
55 °FOvercast.10 mph39%29.90 "Hg10 mi
3:53 PM55 °FOvercast.15 mph39%29.90 "Hg10 mi
2:53 PM55 °FOvercast.9 mph37%29.90 "Hg10 mi
1:53 PM55 °FPartly sunny.12 mph34%29.91 "Hg10 mi
12:53 PM53 °FPartly sunny.12 mph39%29.92 "Hg10 mi
11:53 AM53 °FSunny.5 mph39%29.92 "Hg10 mi
10:53 AM51 °FSunny.14 mph42%29.93 "Hg10 mi
9:53 AM48 °FSunny.13 mph48%29.92 "Hg10 mi
8:53 AM43 °FSunny.9 mph56%29.92 "Hg10 mi
7:53 AM39 °FSunny.10 mph62%29.91 "Hg10 mi
6:53 AM35 °FClear.8 mph70%29.89 "Hg10 mi
5:53 AM34 °FClear.8 mph73%29.88 "Hg10 mi
4:53 AM34 °FClear.6 mph73%29.87 "Hg10 mi
3:53 AM35 °FClear.7 mph70%29.86 "Hg10 mi
2:53 AM37 °FClear.10 mph65%29.85 "Hg10 mi
1:53 AM38 °FClear.10 mph60%29.85 "Hg10 mi
12:53 AM39 °FClear.13 mph57%29.84 "Hg10 mi
11:53 PM
Sat, Apr 25
41 °FClear.10 mph51%29.85 "Hg10 mi
10:53 PM42 °FClear.13 mph49%29.84 "Hg10 mi
9:53 PM43 °FClear.8 mph47%29.84 "Hg10 mi
8:53 PM43 °FPartly sunny.9 mph53%29.83 "Hg10 mi
7:53 PM46 °FScattered clouds.10 mph48%29.83 "Hg10 mi
6:53 PM47 °FSunny.9 mph48%29.82 "Hg10 mi
5:53 PM50 °FSunny.12 mph46%29.82 "Hg10 mi
Weather by CustomWeather, © 2015

See weather overviewHow to use our weather pages